Printer-friendly version

IAU Minor Planet Center

Minor Planet Center

MPEC 2009-D75 : 2009 DV43

The following Minor Planet Electronic Circular may be linked-to from your own Web pages, but must not otherwise be redistributed electronically.


Read MPEC 2009-D74 Read MPEC 2009-D76


M.P.E.C. 2009-D75                                Issued 2009 Feb. 27, 21:30 UT

     The Minor Planet Electronic Circulars contain information on unusual
         minor planets and routine data on comets.  They are published
   on behalf of Commission 20 of the International Astronomical Union by the
          Minor Planet Center, Smithsonian Astrophysical Observatory,
                          Cambridge, MA 02138, U.S.A.

             Prepared using the Tamkin Foundation Computer Network

                              MPC@CFA.HARVARD.EDU
          URL http://www.cfa.harvard.edu/iau/mpc.html  ISSN 1523-6714

                                   2009 DV43

Observations:
     K09D43V* C2009 02 27.29421 11 02 22.45 +09 00 21.2          19.7 V ED075703
     K09D43V  C2009 02 27.31460 11 02 25.79 +09 01 11.4          19.5 V ED075703
     K09D43V  C2009 02 27.32471 11 02 27.45 +09 01 35.2          19.4 V ED075703
     K09D43V  C2009 02 27.38554 11 02 37.57 +09 04 03.1          19.7 V ED075703
     K09D43V  C2009 02 27.38632 11 02 37.71 +09 04 05.4          19.6 V ED075703
     K09D43V  C2009 02 27.38711 11 02 37.78 +09 04 06.8          19.8 V ED075703
     K09D43V  C2009 02 27.39571 11 02 39.27 +09 04 27.0          19.8 V ED075703
     K09D43V  C2009 02 27.39633 11 02 39.36 +09 04 28.6          19.9 V ED075703
     K09D43V  C2009 02 27.39694 11 02 39.43 +09 04 31.1          19.4 V ED075703
     K09D43V  C2009 02 27.39756 11 02 39.61 +09 04 33.3          19.6 V ED075703
     K09D43V  C2009 02 27.41696 11 02 42.86 +09 05 19.9          19.5 V ED075703
     K09D43V  C2009 02 27.41739 11 02 42.96 +09 05 19.8          19.8 V ED075703
     K09D43V  C2009 02 27.41775 11 02 43.03 +09 05 20.5          19.2 V ED075703
     K09D43V  C2009 02 27.41812 11 02 43.13 +09 05 22.5          19.1 V ED075703
     K09D43V  C2009 02 27.43760 11 02 46.40 +09 06 11.1          19.4 R ED075854
     K09D43V  C2009 02 27.44192 11 02 47.21 +09 06 21.4          19.4 R ED075854
     K09D43V  C2009 02 27.44576 11 02 47.91 +09 06 29.1          19.4 R ED075854
     K09D43V  C2009 02 27.86594 11 04 20.35 +09 24 14.1          18.7 R ED075B04
     K09D43V  C2009 02 27.86857 11 04 20.89 +09 24 21.6          19.0 R ED075B04
     K09D43V  C2009 02 27.87122 11 04 21.43 +09 24 28.6          18.9 R ED075B04
     K09D43V  C2009 02 27.87409 11 04 22.00 +09 24 36.3          18.9 R ED075B04
     K09D43V  C2009 02 27.87652 11 04 22.53 +09 24 42.4          18.3 R ED075B04
     K09D43V  C2009 02 27.88272 11 04 23.72 +09 24 59.8          19.0 R ED075B04

Observer details:
703 Catalina Sky Survey.  Observer A. R. Gibbs.  Measurers E. C. Beshore,
    A. Boattini, G. J. Garradd, A. R. Gibbs, A. D. Grauer, R. E. Hill,
    R. A. Kowalski, S. M. Larson, R. H. McNaught.  0.68-m Schmidt + CCD.
854 Sabino Canyon Observatory, Tucson.  Observer J. E. McGaha.  0.36-m f/10.0
    Schmidt-Cassegrain + CCD.
B04 OAVdA, Saint-Barthelemy.  Observer A. Carbognani.  0.81-m f/7.9 reflector
    + CCD.

Orbital elements:
2009 DV43                                                Earth MOID = 0.0194 AU
Epoch 2008 Nov. 30.0 TT = JDT 2454800.5                 MPC
M 316.52092              (2000.0)            P               Q
n   0.30595491     Peri.   79.84283     -0.56379814     +0.82530821
a   2.1812114      Node   155.75516     -0.78469059     -0.52333319
e   0.6476174      Incl.    4.41228     -0.25766709     -0.21210547
P   3.22           H   23.7           G   0.15           U   9
Residuals in seconds of arc
090227 703  0.1+  0.2-    090227 703  0.7-  0.2+    090227 854  0.4+  0.6-
090227 703  0.0   0.5+    090227 703  0.5+  0.9+    090227 B04  0.6-  0.0
090227 703  0.1-  0.2-    090227 703  0.4-  0.4+    090227 B04  0.3-  0.3+
090227 703  0.3+  0.1-    090227 703  0.0   0.8-    090227 B04  0.1-  0.1+
090227 703  0.4+  0.3+    090227 703  0.2+  0.9-    090227 B04  0.0   0.0
090227 703  0.5-  0.2-    090227 703  0.7+  0.2+    090227 B04  0.7+  0.5-
090227 703  0.1+  0.9-    090227 854  0.8-  1.2+    090227 B04  0.3+  0.0
090227 703  0.2-  0.8-    090227 854  0.0   1.0+

Ephemeris:
2009 DV43                a,e,i = 2.18, 0.65, 4                   q = 0.7686
Date    TT    R. A. (2000) Decl.     Delta      r     Elong.  Phase     V
2009 02 28    11 04.77   +09 31.1    0.102    1.093   174.6     4.9    19.4
2009 03 01    11 08.82   +10 21.6    0.0927   1.083   174.1     5.4    19.1
2009 03 02    11 13.82   +11 23.4    0.0830   1.074   173.1     6.4    18.9
2009 03 03    11 20.18   +12 40.7    0.0735   1.064   171.6     7.9    18.7
2009 03 04    11 28.48   +14 19.6    0.0641   1.055   169.3    10.0    18.5
2009 03 05    11 39.77   +16 29.7    0.0549   1.045   166.2    13.1    18.3
2009 03 06    11 55.89   +19 26.3    0.0461   1.036   161.8    17.4    18.0
2009 03 07    12 20.42   +23 32.9    0.0377   1.027   155.1    24.0    17.8
2009 03 08    13 00.92   +29 17.8    0.0302   1.017   144.9    34.1    17.6
2009 03 09    14 12.75   +36 25.8    0.0245   1.008   128.8    50.2    17.5
2009 03 10    16 11.31   +40 56.5    0.0217   0.999   105.9    72.9    17.9
2009 03 11    18 18.19   +37 02.8    0.0232   0.990    81.7    97.0    19.0
2009 03 12    19 40.45   +29 04.9    0.0281   0.981    63.5   115.0    20.4
2009 03 13    20 26.64   +22 22.4    0.0352   0.973    51.9   126.5    21.7
2009 03 14    20 54.14   +17 36.3    0.0433   0.964    44.7   133.5    22.9
2009 03 15    21 11.98   +14 14.7    0.0520   0.955    40.1   137.9    23.8
2009 03 16    21 24.38   +11 48.2    0.0610   0.947    37.1   140.7    24.5
2009 03 17    21 33.50   +09 58.2    0.0703   0.938    35.1   142.5    25.0
2009 03 18    21 40.51   +08 33.0    0.0797   0.930    33.8   143.5    25.4
2009 03 19    21 46.08   +07 25.2    0.0893   0.922    32.9   144.1    25.7
2009 03 20    21 50.65   +06 30.1    0.0989   0.914    32.4   144.3    25.9

Timothy B. Spahr             (C) Copyright 2009 MPC           M.P.E.C. 2009-D75

Read MPEC 2009-D74 Read MPEC 2009-D76


Our Web policy. Index to the CBAT/MPC/ICQ pages.


Valid HTML 4.01!